Hourly Data Report for May 13, 2012

All times are specified in Local Standard Time (LST). Add 1 hour to adjust for Daylight Saving Time where and when it is observed.

SAULT STE MARIE A
ONTARIO

46°29'06.000" N
84°30'35.000" W
192.00 m
6057591
71260
YAM

Download Data

Hourly Data (May 2012)
Hourly Data Report for May 13, 2012
Temp Definition
°C
Dew Point Temp Definition
°C
Rel Hum Definition
%
Wind Dir Definition
10's deg

Wind Spd Definition
km/h
Visibility Definition
km
Stn Press Definition
kPa
Hmdx Definition


Wind Chill Definition


Weather Definition


TIME
00:00 Legend Double Dagger 0.5 -2.7 79   0 10.0 100.10     LegendNANA
01:00 Legend Double Dagger 2.8 2.4 97 24 12 10.0 100.08     Clear
02:00 Legend Double Dagger 3.3 2.4 94 26 7 10.0 100.08     LegendNANA
03:00 Legend Double Dagger 1.5 0.8 95 25 5 10.0 100.07     LegendNANA
04:00 Legend Double Dagger 0.4 -0.2 96 23 5 10.0 100.09     Clear
05:00 Legend Double Dagger -2.1 -2.1 100   0 10.0 100.10     LegendNANA
06:00 Legend Double Dagger -0.4 -0.4 100 4 4 10.0 100.14   -2 LegendNANA
07:00 Legend Double Dagger 6.6 4.8 88 8 7 10.0 100.15     Clear
08:00 Legend Double Dagger 10.5 1.4 53 13 5 10.0 100.13     LegendNANA
09:00 Legend Double Dagger 14.7 -2.6 30 16 6 10.0 100.10     LegendNANA
10:00 Legend Double Dagger 18.0 0.3 30 20 8 10.0 100.05     Clear
11:00 Legend Double Dagger 19.8 -0.1 26 25 8 10.0 99.99     LegendNANA
12:00 Legend Double Dagger 20.6 -0.5 24 23 9 10.0 99.90     LegendNANA
13:00 Legend Double Dagger 21.4 -3.8 18 21 5 10.0 99.84     Mainly Clear
14:00 Legend Double Dagger 22.3 -0.9 21 25 9 10.0 99.77     LegendNANA
15:00 Legend Double Dagger 22.3 -0.3 22 19 12 10.0 99.67     LegendNANA
16:00 Legend Double Dagger 22.0 0.7 24 18 15 10.0 99.61     Mainly Clear
17:00 Legend Double Dagger 19.7 1.3 29 25 9 10.0 99.59     LegendNANA
18:00 Legend Double Dagger 19.1 -0.2 27 21 18 10.0 99.56     LegendNANA
19:00 Legend Double Dagger 17.4 -0.2 30 21 15 10.0 99.54     Mostly Cloudy
20:00 Legend Double Dagger 15.9 -0.7 32 19 12 10.0 99.53     LegendNANA
21:00 Legend Double Dagger 14.0 -0.4 37 19 9 10.0 99.55     LegendNANA
22:00 Legend Double Dagger 12.4 -0.4 41 19 6 10.0 99.54     Mainly Clear
23:00 Legend Double Dagger 6.6 0.3 64   0 10.0 99.48     LegendNANA

Notes on Data Quality.

Legend

  • E = Estimated
  • M = Missing
  • NA = Not Available
  • ‡ = Partner data that is not subject to review by the National Climate Archives
Date modified: